Time,TemperatureF,DewpointF,PressureIn,WindDirection,WindDirectionDegrees,WindSpeedMPH,WindSpeedGustMPH,Humidity,HourlyPrecipIn,Conditions,Clouds,dailyrainin,SoftwareType,DateUTC
2017-04-24 00:00:00,49.8,47.7,30.04,East,82,0.0,1.0,92,0.00,,,-99.99,meteobridge,2017-04-24 07:00:00,
2017-04-24 00:05:00,49.5,46.9,30.04,East,82,0.0,1.0,91,0.00,,,0.00,meteobridge,2017-04-24 07:05:00,
2017-04-24 00:10:00,48.9,46.4,30.04,East,82,0.0,0.0,91,0.00,,,0.00,meteobridge,2017-04-24 07:10:00,
2017-04-24 00:15:00,48.7,46.6,30.04,East,82,0.0,1.0,92,0.00,,,0.00,meteobridge,2017-04-24 07:15:00,
2017-04-24 00:20:00,48.4,46.2,30.04,East,82,0.9,2.0,92,0.00,,,0.00,meteobridge,2017-04-24 07:20:00,
2017-04-24 00:25:00,48.6,46.6,30.05,East,82,0.9,1.0,93,0.00,,,0.00,meteobridge,2017-04-24 07:25:00,
2017-04-24 00:30:00,48.4,46.4,30.04,East,82,0.0,1.0,93,0.00,,,0.00,meteobridge,2017-04-24 07:30:00,
2017-04-24 00:35:00,48.0,46.0,30.04,East,82,0.0,0.0,93,0.00,,,0.00,meteobridge,2017-04-24 07:35:00,
2017-04-24 00:40:00,47.8,45.9,30.04,East,82,0.0,0.0,93,0.00,,,0.00,meteobridge,2017-04-24 07:40:00,
2017-04-24 00:45:00,48.0,46.0,30.04,East,82,0.0,0.0,93,0.00,,,0.00,meteobridge,2017-04-24 07:45:00,
2017-04-24 00:51:00,47.8,45.9,30.04,East,82,0.0,0.0,93,0.00,,,0.00,meteobridge,2017-04-24 07:51:00,
2017-04-24 00:56:00,47.5,45.5,30.04,East,82,0.0,0.0,93,0.00,,,0.00,meteobridge,2017-04-24 07:56:00,
2017-04-24 01:01:00,47.1,45.1,30.05,East,82,0.0,1.0,93,0.00,,,0.00,meteobridge,2017-04-24 08:01:00,
2017-04-24 01:06:00,47.1,45.1,30.05,East,82,0.0,0.0,93,0.00,,,0.00,meteobridge,2017-04-24 08:06:00,
2017-04-24 01:11:00,47.1,45.5,30.04,East,82,0.0,0.0,94,0.00,,,0.00,meteobridge,2017-04-24 08:11:00,
2017-04-24 01:16:00,47.1,45.5,30.04,East,82,0.0,0.0,94,0.00,,,0.00,meteobridge,2017-04-24 08:16:00,
2017-04-24 01:21:00,47.1,45.5,30.05,East,82,0.9,1.0,94,0.00,,,0.00,meteobridge,2017-04-24 08:21:00,
2017-04-24 01:26:00,46.9,45.3,30.04,East,82,0.0,0.0,94,0.00,,,0.00,meteobridge,2017-04-24 08:26:00,
2017-04-24 01:31:00,46.6,45.0,30.05,East,82,0.0,0.0,94,0.00,,,0.00,meteobridge,2017-04-24 08:31:00,
2017-04-24 01:36:00,46.6,45.0,30.04,East,82,0.0,0.0,94,0.00,,,0.00,meteobridge,2017-04-24 08:36:00,
2017-04-24 01:41:00,46.6,45.0,30.04,East,82,0.0,0.0,94,0.00,,,0.00,meteobridge,2017-04-24 08:41:00,
2017-04-24 01:46:00,46.2,44.6,30.04,East,82,0.0,0.0,94,0.00,,,0.00,meteobridge,2017-04-24 08:46:00,
2017-04-24 01:51:00,46.2,44.6,30.04,East,82,0.0,0.0,94,0.00,,,0.00,meteobridge,2017-04-24 08:51:00,
2017-04-24 01:56:00,46.2,44.6,30.04,East,82,0.0,0.0,94,0.00,,,0.00,meteobridge,2017-04-24 08:56:00,
2017-04-24 02:01:00,46.0,44.4,30.04,East,82,0.0,1.0,94,0.00,,,0.00,meteobridge,2017-04-24 09:01:00,
2017-04-24 02:06:00,45.9,44.2,30.04,East,82,0.0,0.0,94,0.00,,,0.00,meteobridge,2017-04-24 09:06:00,
2017-04-24 02:11:00,45.9,44.2,30.04,East,82,0.0,1.0,94,0.00,,,0.00,meteobridge,2017-04-24 09:11:00,
2017-04-24 02:16:00,46.2,44.8,30.04,East,82,0.0,0.0,95,0.00,,,0.00,meteobridge,2017-04-24 09:16:00,
2017-04-24 02:21:00,46.0,44.6,30.04,East,82,0.0,0.0,95,0.00,,,0.00,meteobridge,2017-04-24 09:21:00,
2017-04-24 02:26:00,45.9,44.2,30.04,East,82,0.0,0.0,94,0.00,,,0.00,meteobridge,2017-04-24 09:26:00,
2017-04-24 02:31:00,45.9,44.4,30.04,East,82,0.0,0.0,95,0.00,,,0.00,meteobridge,2017-04-24 09:31:00,
2017-04-24 02:36:00,45.9,44.4,30.04,East,82,0.0,0.0,95,0.00,,,0.00,meteobridge,2017-04-24 09:36:00,
2017-04-24 02:41:00,46.0,44.6,30.04,East,82,0.0,1.0,95,0.00,,,0.00,meteobridge,2017-04-24 09:41:00,
2017-04-24 02:46:00,46.2,44.8,30.03,East,82,0.0,0.0,95,0.00,,,0.00,meteobridge,2017-04-24 09:46:00,
2017-04-24 02:51:00,46.6,45.1,30.03,East,82,0.0,0.0,95,0.00,,,0.00,meteobridge,2017-04-24 09:51:00,
2017-04-24 02:56:00,47.1,45.7,30.04,East,82,0.0,1.0,95,0.00,,,0.00,meteobridge,2017-04-24 09:56:00,
2017-04-24 03:01:00,47.5,46.0,30.04,East,82,0.0,1.0,95,0.00,,,0.00,meteobridge,2017-04-24 10:01:00,
2017-04-24 03:06:00,47.5,46.0,30.04,East,82,0.0,0.0,95,0.00,,,0.00,meteobridge,2017-04-24 10:06:00,
2017-04-24 03:11:00,47.7,46.2,30.04,East,82,0.0,0.0,95,0.00,,,0.00,meteobridge,2017-04-24 10:11:00,
2017-04-24 03:16:00,48.0,46.6,30.04,East,82,0.0,0.0,95,0.00,,,0.00,meteobridge,2017-04-24 10:16:00,
2017-04-24 03:21:00,48.4,46.9,30.04,East,82,0.0,0.0,95,0.00,,,0.00,meteobridge,2017-04-24 10:21:00,
2017-04-24 03:26:00,48.4,46.9,30.05,East,82,0.0,1.0,95,0.00,,,0.00,meteobridge,2017-04-24 10:26:00,
2017-04-24 03:31:00,48.6,47.1,30.05,East,82,0.0,0.0,95,0.00,,,0.00,meteobridge,2017-04-24 10:31:00,
2017-04-24 03:36:00,48.7,47.3,30.05,East,82,0.0,0.0,95,0.00,,,0.00,meteobridge,2017-04-24 10:36:00,
2017-04-24 03:41:00,48.9,47.5,30.05,East,82,0.0,0.0,95,0.00,,,0.00,meteobridge,2017-04-24 10:41:00,
2017-04-24 03:46:00,48.9,47.5,30.05,East,82,0.0,0.0,95,0.00,,,0.00,meteobridge,2017-04-24 10:46:00,
2017-04-24 03:51:00,49.1,47.7,30.05,East,82,0.0,0.0,95,0.00,,,0.00,meteobridge,2017-04-24 10:51:00,
2017-04-24 03:57:00,49.3,47.8,30.05,East,82,0.0,0.0,95,0.00,,,0.00,meteobridge,2017-04-24 10:57:00,
2017-04-24 04:02:00,49.5,48.0,30.04,East,82,0.0,0.0,95,0.00,,,0.00,meteobridge,2017-04-24 11:02:00,
2017-04-24 04:07:00,49.5,48.0,30.04,ENE,78,0.0,2.0,95,0.00,,,0.00,meteobridge,2017-04-24 11:07:00,
2017-04-24 04:12:00,49.6,48.2,30.04,ENE,78,0.0,2.0,95,0.00,,,0.00,meteobridge,2017-04-24 11:12:00,
2017-04-24 04:17:00,49.6,48.2,30.05,ENE,78,0.0,1.0,95,0.00,,,0.00,meteobridge,2017-04-24 11:17:00,
2017-04-24 04:22:00,49.8,48.2,30.05,ENE,78,0.0,1.0,94,0.00,,,0.00,meteobridge,2017-04-24 11:22:00,
2017-04-24 04:27:00,49.8,48.2,30.05,ENE,78,0.0,0.0,94,0.00,,,0.00,meteobridge,2017-04-24 11:27:00,
2017-04-24 04:32:00,49.8,48.2,30.05,ENE,78,0.0,0.0,94,0.00,,,0.00,meteobridge,2017-04-24 11:32:00,
2017-04-24 04:33:00,49.8,48.2,30.05,ENE,78,0.9,1.0,94,0.00,,,0.00,meteobridge,2017-04-24 11:33:00,
2017-04-24 04:38:00,49.6,48.0,30.05,ENE,78,0.9,1.0,94,0.00,,,0.00,meteobridge,2017-04-24 11:38:00,
2017-04-24 04:43:00,49.6,47.7,30.05,ENE,78,0.0,1.0,93,0.00,,,0.00,meteobridge,2017-04-24 11:43:00,
2017-04-24 04:50:00,49.6,47.7,30.05,ENE,78,0.0,0.0,93,0.00,,,0.00,meteobridge,2017-04-24 11:50:00,
2017-04-24 04:55:00,49.5,47.5,30.05,ENE,78,0.0,0.0,93,0.00,,,0.00,meteobridge,2017-04-24 11:55:00,
2017-04-24 05:00:00,49.3,47.3,30.05,ENE,78,0.0,1.0,93,0.00,,,0.00,meteobridge,2017-04-24 12:00:00,
2017-04-24 05:05:00,48.9,46.9,30.05,ENE,78,0.0,0.0,93,0.00,,,0.00,meteobridge,2017-04-24 12:05:00,
2017-04-24 05:10:00,48.9,46.9,30.05,ENE,78,0.0,1.0,93,0.00,,,0.00,meteobridge,2017-04-24 12:10:00,
2017-04-24 05:15:00,49.1,47.5,30.05,ENE,78,0.0,1.0,94,0.00,,,0.00,meteobridge,2017-04-24 12:15:00,
2017-04-24 05:20:00,49.1,47.5,30.05,ENE,78,0.0,0.0,94,0.00,,,0.00,meteobridge,2017-04-24 12:20:00,
2017-04-24 05:25:00,48.9,47.3,30.05,ENE,78,0.0,0.0,94,0.00,,,0.00,meteobridge,2017-04-24 12:25:00,
2017-04-24 05:30:00,48.9,47.3,30.05,ENE,78,0.0,0.0,94,0.00,,,0.00,meteobridge,2017-04-24 12:30:00,
2017-04-24 05:35:00,48.9,47.3,30.05,ENE,78,0.0,0.0,94,0.00,,,0.00,meteobridge,2017-04-24 12:35:00,
2017-04-24 05:40:00,48.9,47.3,30.06,ENE,78,0.0,0.0,94,0.00,,,0.00,meteobridge,2017-04-24 12:40:00,
2017-04-24 05:45:00,49.1,47.5,30.06,ENE,78,0.0,0.0,94,0.00,,,0.00,meteobridge,2017-04-24 12:45:00,
2017-04-24 05:50:00,49.3,47.7,30.06,ENE,78,0.0,0.0,94,0.00,,,0.00,meteobridge,2017-04-24 12:50:00,
2017-04-24 05:55:00,49.3,47.7,30.07,ENE,78,0.0,1.0,94,0.00,,,0.00,meteobridge,2017-04-24 12:55:00,
2017-04-24 06:00:00,49.3,47.7,30.07,ENE,78,0.0,0.0,94,0.00,,,0.00,meteobridge,2017-04-24 13:00:00,
2017-04-24 06:05:00,49.3,47.7,30.07,ENE,78,0.0,0.0,94,0.00,,,0.00,meteobridge,2017-04-24 13:05:00,
2017-04-24 06:10:00,49.5,47.8,30.07,ENE,78,0.0,1.0,94,0.00,,,0.00,meteobridge,2017-04-24 13:10:00,
2017-04-24 06:15:00,49.5,47.8,30.07,ENE,78,0.0,0.0,94,0.00,,,0.00,meteobridge,2017-04-24 13:15:00,
2017-04-24 06:20:00,49.5,47.8,30.07,ENE,78,0.0,0.0,94,0.00,,,0.00,meteobridge,2017-04-24 13:20:00,
2017-04-24 06:25:00,49.5,47.8,30.07,ENE,78,0.0,0.0,94,0.00,,,0.00,meteobridge,2017-04-24 13:25:00,
2017-04-24 06:31:00,49.6,48.0,30.07,ENE,78,0.0,0.0,94,0.00,,,0.00,meteobridge,2017-04-24 13:31:00,
2017-04-24 06:36:00,49.6,48.0,30.06,ENE,78,0.0,0.0,94,0.00,,,0.00,meteobridge,2017-04-24 13:36:00,
2017-04-24 06:41:00,49.6,48.0,30.07,ENE,78,0.0,0.0,94,0.00,,,0.00,meteobridge,2017-04-24 13:41:00,
2017-04-24 06:46:00,49.8,48.2,30.06,ENE,78,0.0,1.0,94,0.00,,,0.00,meteobridge,2017-04-24 13:46:00,
2017-04-24 06:51:00,49.8,48.2,30.06,ENE,78,0.0,1.0,94,0.00,,,0.00,meteobridge,2017-04-24 13:51:00,
2017-04-24 06:56:00,50.0,48.0,30.06,ENE,78,0.0,1.0,93,0.00,,,0.00,meteobridge,2017-04-24 13:56:00,
2017-04-24 07:01:00,49.8,47.8,30.07,ENE,78,0.9,1.0,93,0.00,,,0.00,meteobridge,2017-04-24 14:01:00,
2017-04-24 07:06:00,50.0,48.0,30.07,ENE,78,0.0,0.0,93,0.00,,,0.00,meteobridge,2017-04-24 14:06:00,
2017-04-24 07:11:00,50.2,48.2,30.08,ENE,78,0.0,1.0,93,0.00,,,0.00,meteobridge,2017-04-24 14:11:00,
2017-04-24 07:16:00,50.4,48.4,30.08,ENE,78,0.0,0.0,93,0.00,,,0.00,meteobridge,2017-04-24 14:16:00,
2017-04-24 07:21:00,50.5,48.6,30.08,ENE,78,0.0,0.0,93,0.00,,,0.00,meteobridge,2017-04-24 14:21:00,
2017-04-24 07:22:00,50.5,48.6,30.08,ENE,78,0.0,0.0,93,0.00,,,0.00,meteobridge,2017-04-24 14:22:00,
2017-04-24 07:27:00,50.5,48.6,30.08,ENE,78,1.0,1.0,93,0.00,,,0.00,meteobridge,2017-04-24 14:27:00,
2017-04-24 07:32:00,50.5,48.4,30.08,ENE,78,0.0,1.0,92,0.00,,,0.00,meteobridge,2017-04-24 14:32:00,
2017-04-24 07:37:00,50.5,48.4,30.08,ENE,78,0.0,1.0,92,0.00,,,0.00,meteobridge,2017-04-24 14:37:00,
2017-04-24 07:42:00,50.7,48.6,30.08,ENE,78,0.9,2.0,92,0.00,,,0.00,meteobridge,2017-04-24 14:42:00,
2017-04-24 07:47:00,51.1,48.9,30.08,ENE,78,0.0,1.0,92,0.00,,,0.00,meteobridge,2017-04-24 14:47:00,
2017-04-24 07:52:00,51.3,48.7,30.08,ENE,78,0.9,2.0,91,0.00,,,0.00,meteobridge,2017-04-24 14:52:00,
2017-04-24 07:57:00,51.4,48.9,30.08,ENE,78,0.9,2.0,91,0.00,,,0.00,meteobridge,2017-04-24 14:57:00,
2017-04-24 08:02:00,51.6,48.7,30.08,ENE,78,2.0,3.0,90,0.00,,,0.00,meteobridge,2017-04-24 15:02:00,
2017-04-24 08:07:00,52.0,49.1,30.07,East,86,0.9,3.0,90,0.00,,,0.00,meteobridge,2017-04-24 15:07:00,
2017-04-24 08:12:00,52.3,49.5,30.08,East,83,0.9,3.0,90,0.00,,,0.00,meteobridge,2017-04-24 15:12:00,
2017-04-24 08:17:00,52.9,49.6,30.08,ENE,77,4.0,4.0,89,0.00,,,0.00,meteobridge,2017-04-24 15:17:00,
2017-04-24 08:22:00,52.9,49.5,30.08,East,88,0.9,3.0,88,0.00,,,0.00,meteobridge,2017-04-24 15:22:00,
2017-04-24 08:27:00,53.1,49.6,30.08,ENE,65,0.9,2.0,88,0.00,,,0.00,meteobridge,2017-04-24 15:27:00,
2017-04-24 08:32:00,52.9,49.1,30.08,East,80,2.9,3.0,87,0.00,,,0.00,meteobridge,2017-04-24 15:32:00,
2017-04-24 08:37:00,53.2,49.5,30.08,ENE,76,6.0,6.0,87,0.00,,,0.00,meteobridge,2017-04-24 15:37:00,
2017-04-24 08:39:00,53.2,49.1,30.08,East,84,0.9,6.0,86,0.00,,,0.00,meteobridge,2017-04-24 15:39:00,
2017-04-24 08:44:00,53.8,49.6,30.08,East,84,2.0,3.0,86,0.00,,,0.00,meteobridge,2017-04-24 15:44:00,
2017-04-24 08:49:00,53.8,49.5,30.09,SW,236,0.0,3.0,85,0.00,,,0.00,meteobridge,2017-04-24 15:49:00,
2017-04-24 08:54:00,54.0,49.6,30.09,NE,47,2.0,3.0,85,0.00,,,0.00,meteobridge,2017-04-24 15:54:00,
2017-04-24 08:59:00,54.0,48.9,30.09,NW,323,0.0,3.0,83,0.00,,,0.00,meteobridge,2017-04-24 15:59:00,
2017-04-24 09:04:00,54.3,49.6,30.09,NW,315,0.9,2.0,84,0.00,,,0.00,meteobridge,2017-04-24 16:04:00,
2017-04-24 09:09:00,54.5,48.7,30.10,SSE,164,0.9,4.0,81,0.00,,,0.00,meteobridge,2017-04-24 16:09:00,
2017-04-24 09:14:00,54.9,49.5,30.10,NW,321,0.0,2.0,82,0.00,,,0.00,meteobridge,2017-04-24 16:14:00,
2017-04-24 09:19:00,55.2,49.8,30.09,ENE,77,0.0,2.0,82,0.00,,,0.00,meteobridge,2017-04-24 16:19:00,
2017-04-24 09:24:00,55.9,50.2,30.10,East,89,0.9,1.0,81,0.00,,,0.00,meteobridge,2017-04-24 16:24:00,
2017-04-24 09:29:00,56.1,49.3,30.10,South,178,4.9,5.0,78,0.00,,,0.00,meteobridge,2017-04-24 16:29:00,
2017-04-24 09:34:00,56.5,49.3,30.10,West,263,2.0,4.0,77,0.00,,,0.00,meteobridge,2017-04-24 16:34:00,
2017-04-24 09:39:00,56.5,49.3,30.10,WNW,292,0.9,3.0,77,0.00,,,0.00,meteobridge,2017-04-24 16:39:00,
2017-04-24 09:44:00,57.2,49.6,30.10,ESE,103,0.9,5.0,76,0.00,,,0.00,meteobridge,2017-04-24 16:44:00,
2017-04-24 09:46:00,57.6,50.0,30.10,ENE,61,0.9,2.0,76,0.00,,,0.00,meteobridge,2017-04-24 16:46:00,
2017-04-24 09:50:00,57.9,50.0,30.10,South,180,2.0,5.0,75,0.00,,,0.00,meteobridge,2017-04-24 16:50:00,
2017-04-24 09:55:00,58.5,51.3,30.10,North,0,0.9,3.0,77,0.00,,,0.00,meteobridge,2017-04-24 16:55:00,
2017-04-24 10:00:00,58.5,49.5,30.10,WSW,239,2.0,6.0,72,0.00,,,0.00,meteobridge,2017-04-24 17:00:00,
2017-04-24 10:05:00,58.1,49.8,30.10,WNW,286,0.9,4.0,74,0.00,,,0.00,meteobridge,2017-04-24 17:05:00,
2017-04-24 10:10:00,58.5,50.2,30.10,North,349,2.0,5.0,74,0.00,,,0.00,meteobridge,2017-04-24 17:10:00,
2017-04-24 10:15:00,57.9,49.6,30.10,South,190,2.0,3.0,74,0.00,,,0.00,meteobridge,2017-04-24 17:15:00,
2017-04-24 10:20:00,58.5,50.2,30.10,East,86,2.0,2.0,74,0.00,,,0.00,meteobridge,2017-04-24 17:20:00,
2017-04-24 10:25:00,58.6,48.9,30.11,ESE,108,2.9,9.0,70,0.00,,,0.00,meteobridge,2017-04-24 17:25:00,
2017-04-24 10:29:00,58.6,50.4,30.11,SSE,147,0.9,2.0,74,0.00,,,0.00,meteobridge,2017-04-24 17:29:00,
2017-04-24 10:34:00,58.1,49.1,30.11,WNW,298,0.9,2.0,72,0.00,,,0.00,meteobridge,2017-04-24 17:34:00,
2017-04-24 10:39:00,58.5,49.5,30.12,SSE,160,4.9,7.0,72,0.00,,,0.00,meteobridge,2017-04-24 17:39:00,
2017-04-24 10:44:00,58.3,49.3,30.12,West,279,2.0,8.0,72,0.00,,,0.00,meteobridge,2017-04-24 17:44:00,
2017-04-24 10:49:00,58.3,48.9,30.12,NNW,333,0.0,3.0,71,0.00,,,0.00,meteobridge,2017-04-24 17:49:00,
2017-04-24 10:54:00,57.9,48.6,30.12,SE,125,0.9,2.0,71,0.00,,,0.00,meteobridge,2017-04-24 17:54:00,
2017-04-24 10:59:00,57.7,48.4,30.12,ENE,76,0.9,4.0,71,0.00,,,0.00,meteobridge,2017-04-24 17:59:00,
2017-04-24 11:04:00,57.9,48.6,30.12,WNW,284,2.9,4.0,71,0.00,,,0.00,meteobridge,2017-04-24 18:04:00,
2017-04-24 11:09:00,57.9,49.3,30.12,ENE,67,0.9,3.0,73,0.00,,,0.00,meteobridge,2017-04-24 18:09:00,
2017-04-24 11:14:00,58.6,49.6,30.12,SSW,200,0.0,6.0,72,0.00,,,0.00,meteobridge,2017-04-24 18:14:00,
2017-04-24 11:15:00,58.6,49.3,30.12,South,190,2.0,3.0,71,0.00,,,0.00,meteobridge,2017-04-24 18:15:00,
2017-04-24 11:20:00,58.6,49.3,30.12,NW,306,2.0,3.0,71,0.00,,,0.00,meteobridge,2017-04-24 18:20:00,
2017-04-24 11:25:00,58.3,49.6,30.12,ESE,119,4.0,6.0,73,0.00,,,0.00,meteobridge,2017-04-24 18:25:00,
2017-04-24 11:30:00,58.5,49.8,30.12,West,271,10.0,10.0,73,0.00,,,0.00,meteobridge,2017-04-24 18:30:00,
2017-04-24 11:35:00,59.9,51.6,30.12,North,5,2.9,4.0,74,0.00,,,0.00,meteobridge,2017-04-24 18:35:00,
2017-04-24 11:40:00,59.7,50.7,30.12,NW,326,2.9,8.0,72,0.00,,,0.00,meteobridge,2017-04-24 18:40:00,
2017-04-24 11:45:00,59.7,51.1,30.12,East,79,0.9,4.0,73,0.00,,,0.00,meteobridge,2017-04-24 18:45:00,
2017-04-24 11:50:00,60.4,51.1,30.12,WNW,290,4.9,10.0,71,0.00,,,0.00,meteobridge,2017-04-24 18:50:00,
2017-04-24 11:55:00,60.6,51.6,30.12,NNW,342,2.0,6.0,72,0.00,,,0.00,meteobridge,2017-04-24 18:55:00,
2017-04-24 12:00:00,61.2,51.3,30.12,WSW,252,9.0,9.0,70,0.00,,,0.00,meteobridge,2017-04-24 19:00:00,
2017-04-24 12:05:00,59.5,50.5,30.12,West,266,4.0,9.0,72,0.00,,,0.00,meteobridge,2017-04-24 19:05:00,
2017-04-24 12:10:00,59.5,50.9,30.12,SSW,199,2.9,7.0,73,0.00,,,0.00,meteobridge,2017-04-24 19:10:00,
2017-04-24 12:15:00,59.7,51.8,30.11,SE,146,0.9,6.0,75,0.00,,,0.00,meteobridge,2017-04-24 19:15:00,
2017-04-24 12:20:00,60.4,51.1,30.11,WNW,290,9.0,9.0,71,0.00,,,0.00,meteobridge,2017-04-24 19:20:00,
2017-04-24 12:25:00,59.5,50.9,30.11,SSE,150,0.9,6.0,73,0.00,,,0.00,meteobridge,2017-04-24 19:25:00,
2017-04-24 12:30:00,59.2,51.3,30.11,West,275,2.9,6.0,75,0.00,,,0.00,meteobridge,2017-04-24 19:30:00,
2017-04-24 12:35:00,59.2,51.3,30.11,ENE,58,2.0,4.0,75,0.00,,,0.00,meteobridge,2017-04-24 19:35:00,
2017-04-24 12:40:00,59.7,51.4,30.11,NNW,331,11.0,11.0,74,0.00,,,0.00,meteobridge,2017-04-24 19:40:00,
2017-04-24 12:45:00,58.8,51.3,30.11,NNW,348,4.0,8.0,76,0.00,,,0.00,meteobridge,2017-04-24 19:45:00,